Regional Weather Roundup
Issued by NWS

Home | Current Version | Previous Version | Text Only | Print | Product List | Glossary On
Versions: 1 2 3 4 5 6 7 8 9 10 11 12 13 14 15 16 17 18 19 20 21 22 23 24 25 26 27 28 29 30 31 32 33 34 35 36 37 38 39 40 41 42 43 44 45 46 47 48 49 50
000
ASUS46 KLOX 210712
RWRCA

SOUTHERN CALIFORNIA WEATHER ROUNDUP
NATIONAL WEATHER SERVICE OXNARD CALIFORNIA
1200 AM PDT TUE APR 21 2015

NOTE: "FAIR" INDICATES FEW OR NO CLOUDS BELOW 12,000 FEET WITH NO
SIGNIFICANT WEATHER AND/OR OBSTRUCTIONS TO VISIBILITY.

  -  STATIONS PRECEEDED BY AN ASTERISK (*) ARE NOT NWS OR FAA
     STATIONS AND ARE NOT SUBJECT TO NWS AND FAA QUALITY CONTROL.

CAZ041-042-087-210800-
LA AND ORANGE COUNTY COASTAL AREAS


CITY           SKY/WX    TMP DP  RH WIND       PRES   REMARKS
L.A. DOWNTOWN  MOCLDY    57  51  80 CALM      29.91R
L.A. AIRPORT   MOCLDY    57  52  83 CALM      29.92R
LONG BEACH     CLOUDY    59  50  72 SE5       29.91S

CITY           SKY/WX    TMP DP  RH WIND       PRES   REMARKS
AVALON           N/A     57 N/A N/A MISG        N/A
FULLERTON      CLOUDY    60  32  34 SW5       29.90S
*GETTY CENTER    N/A     52  50  93 SW5         N/A
HAWTHORNE      CLOUDY    60  50  69 SW3       29.92R
*LEO CARRILLO    N/A     51  46  82 N5          N/A
*LOS ALAMITOS  CLOUDY    59  52  78 SW7       29.91S
*REDONDO BEACH   N/A     56  49  78 CALM      29.92R
SANTA ANA      CLOUDY    60  51  72 SE6       29.91S
STA MONICA APT CLOUDY    59  51  75 CALM      29.91S
*UCLA            N/A     55  50  82 NW1       29.88S

$$

CAZ547-548-048-210800-
LA COUNTY VALLEYS AND INLAND EMPIRE


CITY           SKY/WX    TMP DP  RH WIND       PRES   REMARKS
BURBANK        CLOUDY    56  50  80 S3        29.90S
VAN NUYS       MOCLDY    54  50  86 S3        29.90R

CITY           SKY/WX    TMP DP  RH WIND       PRES   REMARKS
CORONA AIRPORT SUNNY     55  51  86 W3        29.91S
*CHATSWORTH      N/A     56  49  79 E5        29.91R
CHINO          CLEAR     56  49  77 W7        29.92R
MARCH AFB      CLEAR     52  49  89 SE6       29.90S
*NORTHRIDGE      N/A     55  48  76 E2          N/A
ONTARIO        CLEAR     54  49  83 W8        29.90S
*PASADENA        N/A     57  54  88 CALM        N/A
RIVERSIDE      CLEAR     56  49  77 CALM      29.91R
SAN BERNARDINO NOT AVBL
*SAN RAFAEL HI   N/A     51  47  87 SW3         N/A
*SAUGUS          N/A     55  47  75 SW8         N/A
*WHITEMAN AP   NOT AVBL
*WHITTIER HILL   N/A     54  53  95 S6          N/A
*WOODLAND HILL   N/A     54  48  82 E2          N/A

$$

CAZ054-055-210800-
LA AND SAN BERNARDINO COUNTY MOUNTAINS


CITY           SKY/WX    TMP DP  RH WIND       PRES   REMARKS
*BIG BEAR AIRP SUNNY     32  19  59 CALM      30.01S
*CHILAO          N/A     51  29  42 CALM        N/A
MT WILSON NWS    N/A     50  23  34 MISG        N/A
SANDBERG       PTCLDY    49  37  63 SW6       29.93S
*WARM SPRINGS    N/A     45  41  86 SW12        N/A

$$

CAZ028-029-059-060-099-210800-
ANTELOPE VALLEY AND SURROUNDING AREAS


CITY           SKY/WX    TMP DP  RH WIND       PRES   REMARKS
LANCASTER      CLEAR     58  34  40 SW16      29.83S
PALMDALE       CLEAR     60  31  33 SW15      29.84S
*POPPY PARK      N/A     57  40  52 SW21        N/A

CITY           SKY/WX    TMP DP  RH WIND       PRES   REMARKS
29 PALMS       CLEAR     66  33  29 NW6       29.87R
BARSTOW/DAGGET CLEAR     71  31  22 W8        29.80R
BISHOP         PTCLDY    64  23  21 N13       29.85S
CHINA LAKE     CLEAR     68  37  32 S12       29.76R
EDWARDS AFB    CLEAR     60  36  40 S12       29.81R
MOJAVE         FAIR      64  39  39 W10G17    29.82S
NEEDLES        CLEAR     78  22  12 SW3       29.74R
VICTORVILLE    CLEAR     57  39  51 SE10      29.86S

$$

CAZ039-040-210800-
VENTURA AND SANTA BARBARA COUNTY COAST


CITY           SKY/WX    TMP DP  RH WIND       PRES   REMARKS
CAMARILLO      MOCLDY    56  49  77 S3        29.90R
NWS OXNARD       N/A     56  51  83 CALM      29.89S
OXNARD AIRPORT CLOUDY    56  51  84 CALM      29.90R
*POINT MUGU    CLOUDY    57  52  83 CALM      29.91S
SBA APT/GOLETA CLEAR     56  52  86 E6        29.88R
*SANTA BARBARA   N/A     57  50  77 CALM      29.97R
*VENTURA         N/A     58  51  79 CALM      29.93S

$$

CAZ044-045-210800-
VENTURA COUNTY VALLEYS


CITY           SKY/WX    TMP DP  RH WIND       PRES   REMARKS
*SIMI VALLEY     N/A     51  47  87 CALM      29.87R
*OJAI            N/A     48  45  87 CALM      29.85S
*FILLMORE        N/A     52  45  79 CALM      29.81R

$$

CAZ053-210800-
VENTURA COUNTY MOUNTAINS


CITY           SKY/WX    TMP DP  RH WIND       PRES   REMARKS
*LOCKWOOD VLY    N/A     43  34  70 MISG        N/A
*ROSE VALLEY     N/A     46  43  87 MISG        N/A

$$

CAZ034-035-036-210800-
CENTRAL COAST AND SANTA YNEZ VALLEY


CITY           SKY/WX    TMP DP  RH WIND       PRES   REMARKS
SAN LUIS OBISP CLOUDY    54  48  80 NW7       29.90R
SANTA MARIA    CLOUDY    55  48  77 NW5       29.91R

CITY           SKY/WX    TMP DP  RH WIND       PRES   REMARKS
*CAL POLY SLO    N/A     54  50  87 NW3G10      N/A
*LOMPOC        CLOUDY    55  46  71 CALM      29.92R
*PISMO BEACH     N/A     55  50  82 CALM      29.91R
*SANTA YNEZ    CLOUDY    52  46  82 CALM      29.90S

$$

CAZ037-038-051-210800-
SAN LUIS OBISPO COUNTY INTERIOR AND CUYAMA VALLEY


CITY           SKY/WX    TMP DP  RH WIND       PRES   REMARKS
*CUYAMA          N/A     53  44  72 CALM      29.80S
PASO ROBLES    PTCLDY    52  46  80 SW9       29.87R

$$

CAZ032-033-061-210800-
SOUTHERN DESERTS


CITY           SKY/WX    TMP DP  RH WIND       PRES   REMARKS
BLYTHE         CLEAR     75  29  18 SW12      29.75R
IMPERIAL       CLEAR     66  46  48 W8        29.72S
PALM SPRINGS   CLEAR     71  45  39 CALM      29.76R
THERMAL        CLEAR     71  46  40 NW13      29.71S

$$

ELSEWHERE ACROSS THE WESTERN UNITED STATES AND MEXICO


CITY           SKY/WX    TMP DP  RH WIND       PRES   REMARKS
DENVER, CO     PTCLDY    36  33  89 S9        29.96R WCI  29
GRAND CANYON,  MOCLDY    33  15  47 CALM      30.03R
HONOLULU, HI   PTCLDY    75  63  64 NE16G25   30.08R
KAHULUI, MAUI  LGT RAIN  70  64  83 E14G23    30.08R
LAKE TAHOE, CA CLEAR     39  25  57 CALM      30.00R
LAS VEGAS, NV  PTCLDY    75  15  10 S12       29.73R
MAMMOTH LAKES, FAIR      45  21  39 N5        30.03F
MEXICO CITY, M CLEAR     68  45  42 NW6       30.26
PHOENIX, AZ    CLEAR     78  26  14 W8        29.77R
PORTLAND, OR   PTCLDY    60  44  55 W7        29.85R
RENO, NV       CLEAR     60  27  28 SW8       29.91S
SALT LAKE CITY CLEAR     53  26  35 S9        29.88R
SAN DIEGO, CA  CLOUDY    61  48  62 SW6       29.93S
SAN FRANCISCO, PTCLDY    55  52  89 SW9       29.87S
SAN JOSE, CA   CLOUDY    55  48  76 CALM      29.87S
SEATTLE, WA    PTCLDY    60  42  51 NE14      29.86S
TIJUANA, MEX     N/A    N/A N/A N/A MISG        N/A

$$

STATION/POSITION TIME  TEMP    WIND        PRES    VSBY  WAVE
                       AIR SEA DIR/SP/G                  HT/PER
                 (UTC) (F)     (DEG/KT/KT) (MB)    (MI)  (FT/S)
POINT ARGUELLO B NOT AVBL
WEST SANTA BARBA 0700   56 55  330/ 10/ 14 1011.9R         4/14
POINT CONCEPTION NOT AVBL
EAST SANTA BARBA NOT AVBL
SANTA MONICA BAY 0700   58 62  280/  6/  8 1012.7R         3/14


USA.gov is the U.S. government's official web portal to all federal, state and local government web resources and services.